Location: Newark
(51.3000°N, 178.2000°W)
Time: 02:33:18
(UTC+00:00)

ISS - Pass Details

Date: 12 May 2021
Orbit: 417 x 422 km, 51.6° (Epoch: 15 June)

Event Time Altitude Azimuth Distance (km) Brightness Sun altitude
Rises 14:46:56 0° 284° (WNW) 2,375 -0.2 -10.3°
Reaches altitude 10° 14:49:04 10° 280° (W) 1,510 -1.3 -10.1°
Maximum altitude 14:52:23 55° 202° (SSW) 516 -3.6 -9.7°
Drops below altitude 10° 14:55:42 10° 124° (ESE) 1,506 -0.8 -9.4°
Sets 14:57:49 0° 119° (ESE) 2,370 0.3 -9.1°
